TimeEEST,TemperatureF,Dew PointF,Humidity,Sea Level PressureIn,VisibilityMPH,Wind Direction,Wind SpeedMPH,Gust SpeedMPH,PrecipitationIn,Events,Conditions,WindDirDegrees,DateUTC
12:20 AM,71.6,53.6,53,30.06,-9999.0,East,3.5,-,N/A,,Clear,80,2013-09-10 21:20:00
12:50 AM,71.6,57.2,60,30.06,-9999.0,East,3.5,-,N/A,,Clear,80,2013-09-10 21:50:00
1:20 AM,73.4,53.6,50,30.06,-9999.0,Variable,5.8,-,N/A,,Clear,0,2013-09-10 22:20:00
1:50 AM,75.2,53.6,47,30.06,-9999.0,Variable,4.6,-,N/A,,Clear,0,2013-09-10 22:50:00
2:20 AM,69.8,51.8,53,30.06,-9999.0,Variable,2.3,-,N/A,,Clear,0,2013-09-10 23:20:00
2:50 AM,68.0,51.8,56,30.06,-9999.0,NNW,3.5,-,N/A,,Clear,340,2013-09-10 23:50:00
3:00 AM,67,51,47,30.06,6,NNW,3.5,,,,,340,2013-09-11 00:00:00
3:20 AM,69.8,51.8,53,30.04,-9999.0,Variable,3.5,-,N/A,,Clear,0,2013-09-11 00:20:00
3:50 AM,68.0,51.8,56,30.04,-9999.0,Variable,2.3,-,N/A,,Clear,0,2013-09-11 00:50:00
4:20 AM,68.0,51.8,56,30.04,-9999.0,Calm,Calm,-,N/A,,Clear,0,2013-09-11 01:20:00
4:50 AM,66.2,51.8,60,30.04,-9999.0,NNW,2.3,-,N/A,,Clear,340,2013-09-11 01:50:00
5:20 AM,64.4,51.8,64,30.04,-9999.0,North,3.5,-,N/A,,Clear,360,2013-09-11 02:20:00
5:50 AM,64.4,51.8,64,30.04,-9999.0,North,3.5,-,N/A,,Clear,360,2013-09-11 02:50:00
6:20 AM,66.2,51.8,60,30.04,-9999.0,Variable,2.3,-,N/A,,Clear,0,2013-09-11 03:20:00
6:50 AM,69.8,51.8,53,30.04,-9999.0,ENE,4.6,-,N/A,,Clear,70,2013-09-11 03:50:00
7:20 AM,69.8,51.8,53,30.04,-9999.0,East,4.6,-,N/A,,Clear,100,2013-09-11 04:20:00
7:50 AM,69.8,51.8,53,30.04,-9999.0,East,4.6,-,N/A,,Clear,80,2013-09-11 04:50:00
8:20 AM,71.6,53.6,53,30.04,-9999.0,Variable,4.6,-,N/A,,Clear,0,2013-09-11 05:20:00
8:50 AM,73.4,55.4,53,30.04,-9999.0,SE,5.8,-,N/A,,Clear,130,2013-09-11 05:50:00
9:00 AM,74,54,40,30.05,6,SE,5.8,,,,,130,2013-09-11 06:00:00
9:20 AM,75.2,53.6,47,30.04,-9999.0,ESE,6.9,-,N/A,,Clear,120,2013-09-11 06:20:00
9:50 AM,75.2,57.2,53,30.04,-9999.0,Variable,3.5,-,N/A,,Clear,0,2013-09-11 06:50:00
10:20 AM,77.0,57.2,50,30.04,-9999.0,SSE,3.5,-,N/A,,Clear,160,2013-09-11 07:20:00
10:50 AM,78.8,46.4,32,30.04,-9999.0,SE,3.5,-,N/A,,Clear,130,2013-09-11 07:50:00
11:20 AM,78.8,50.0,36,30.04,-9999.0,SSE,4.6,-,N/A,,Clear,160,2013-09-11 08:20:00
11:50 AM,80.6,46.4,30,30.04,-9999.0,SE,6.9,-,N/A,,Clear,140,2013-09-11 08:50:00
12:20 PM,80.6,50.0,34,30.04,-9999.0,South,6.9,-,N/A,,Clear,170,2013-09-11 09:20:00
12:50 PM,82.4,46.4,28,30.01,-9999.0,SSE,6.9,-,N/A,,Clear,160,2013-09-11 09:50:00
1:20 PM,82.4,48.2,30,30.01,-9999.0,South,6.9,-,N/A,,Clear,180,2013-09-11 10:20:00
1:50 PM,82.4,50.0,32,30.01,-9999.0,South,6.9,-,N/A,,Clear,190,2013-09-11 10:50:00
2:20 PM,82.4,50.0,32,30.01,-9999.0,South,6.9,-,N/A,,Clear,190,2013-09-11 11:20:00
2:50 PM,82.4,51.8,35,29.98,-9999.0,SSW,5.8,-,N/A,,Clear,200,2013-09-11 11:50:00
3:00 PM,82,51,24,29.99,6,SSW,5.8,,,,,200,2013-09-11 12:00:00
3:20 PM,84.2,51.8,33,29.98,-9999.0,SSW,5.8,-,N/A,,Clear,200,2013-09-11 12:20:00
3:50 PM,82.4,53.6,37,29.98,-9999.0,SW,6.9,-,N/A,,Clear,220,2013-09-11 12:50:00
4:20 PM,80.6,57.2,45,29.98,-9999.0,SW,5.8,-,N/A,,Clear,230,2013-09-11 13:20:00
4:50 PM,80.6,59.0,48,29.98,-9999.0,WSW,5.8,-,N/A,,Clear,240,2013-09-11 13:50:00
5:20 PM,80.6,55.4,42,29.95,-9999.0,SW,4.6,-,N/A,,Clear,230,2013-09-11 14:20:00
5:50 PM,80.6,57.2,45,29.95,-9999.0,WSW,4.6,-,N/A,,Clear,240,2013-09-11 14:50:00
6:20 PM,78.8,53.6,42,29.95,-9999.0,WSW,4.6,-,N/A,,Clear,240,2013-09-11 15:20:00
6:50 PM,78.8,51.8,39,29.95,-9999.0,West,3.5,-,N/A,,Clear,270,2013-09-11 15:50:00
7:20 PM,80.6,51.8,37,29.98,-9999.0,NW,4.6,-,N/A,,Clear,310,2013-09-11 16:20:00
7:50 PM,82.4,51.8,35,29.98,-9999.0,ENE,5.8,-,N/A,,Clear,60,2013-09-11 16:50:00
8:20 PM,80.6,53.6,39,29.98,-9999.0,ENE,6.9,-,N/A,,Clear,60,2013-09-11 17:20:00
8:50 PM,78.8,53.6,42,29.98,-9999.0,ENE,8.1,-,N/A,,Clear,70,2013-09-11 17:50:00
9:00 PM,80,52,28,29.97,6,ENE,8.1,,,,Mostly Cloudy,70,2013-09-11 18:00:00
9:20 PM,78.8,50.0,36,29.98,-9999.0,NE,5.8,-,N/A,,Clear,50,2013-09-11 18:20:00
9:50 PM,78.8,51.8,39,29.95,-9999.0,East,6.9,-,N/A,,Clear,80,2013-09-11 18:50:00
10:20 PM,77.0,51.8,41,29.95,-9999.0,East,5.8,-,N/A,,Clear,80,2013-09-11 19:20:00
10:50 PM,75.2,55.4,50,29.95,-9999.0,ESE,5.8,-,N/A,,Clear,110,2013-09-11 19:50:00
11:20 PM,77.0,57.2,50,29.95,-9999.0,East,4.6,-,N/A,,Clear,90,2013-09-11 20:20:00
11:50 PM,75.2,59.0,57,29.95,-9999.0,ESE,3.5,-,N/A,,Clear,110,2013-09-11 20:50:00